Zurück zum Katalog

SL-8 DEB

AktivLEO
NORAD 21174·DEBRIS·🇷🇺 Russia

Gestartet Feb 12, 1991 von Plesetsk Cosmodrome

Loading…

Nächste Überflüge (nächste 24 Stunden)

TLE

AktuellSource: Space-Track

Epoche: Sep 14, 2026, 07:42 UTC

1 21174U 91009AM  26257.32103334  .00000060  00000-0  80105-3 0  9998
2 21174  74.0914  28.7889 0277310  95.6720 291.3124 11.99437263555195

Verfolge SL-8 DEB in Echtzeit mit AllMySat

Download on the App Store